Haleyville, AL

3:30 PM CDT on May 25, 2017 (GMT -0500)
Haleyville

Weather History for K1M4 - March, 2013

Change the Weather History Date:

Friday, March 8, 2013

  Actual Average (KJFX) Record (KJFX)
Temperature  
Mean Temperature 45 °F -  
Max Temperature 63 °F 64 °F 81 °F (1974)
Min Temperature 27 °F 34 °F 19 °F (1982)
Degree Days  
Heating Degree Days 20    
Moisture  
Dew Point 26 °F    
Average Humidity 58    
Maximum Humidity 92    
Minimum Humidity 18    
Precipitation  
Precipitation 0.00 in - - ()
Sea Level Pressure  
Sea Level Pressure 30.33 in    
Wind  
Wind Speed 4 mph (NE)    
Max Wind Speed 8 mph    
Max Gust Speed -    
Visibility 9 miles    
Events      
Averages and records for this station are not official NWS values.
T = Trace of Precipitation, MM = Missing Value Source: NWS Daily Summary

Daily Weather History Graph

Daily Weather History Graph

Search for Another Location

Airport or City:

Trip Planner

Search our weather history database for the weather conditions in past years. The results will help you decide how hot, cold, wet, or windy it might be!

Date:

Astronomy

Mar. 08, 2013 Rise Set
Actual Time 6:09 AM CST 5:52 PM CST
Civil Twilight 5:44 AM CST 6:17 PM CST
Nautical Twilight 5:15 AM CST 6:46 PM CST
Astronomical Twilight 4:46 AM CST 7:16 PM CST
Moon 3:46 AM CST (3/8) 2:53 PM CST (3/8)
Length of Visible Light 12h 32m
Length of Day
11h 42m
Waning Crescent, 11% of the Moon is Illuminated
Mar 8
Waning Crescent
Mar 11
New
Mar 19
First Quarter
Mar 27
Full
Apr 2
Last Quarter

Hourly Weather History & Observations

Time (CST) Temp. Windchill Dew Point Humidity Pressure Visibility Wind Dir Wind Speed Gust Speed Precip Events Conditions
12:56 AM 31.1 °F 26.4 °F 27.1 °F 85% 30.34 in 9.0 mi North 4.6 mph - N/A   Clear
1:56 AM 30.0 °F 26.5 °F 27.1 °F 89% 30.34 in 9.0 mi North 3.5 mph - N/A   Clear
2:56 AM 29.1 °F 25.4 °F 26.1 °F 88% 30.33 in 8.0 mi NE 3.5 mph - N/A   Clear
3:56 AM 28.0 °F 22.8 °F 26.1 °F 92% 30.34 in 8.0 mi NNE 4.6 mph - N/A   Clear
4:56 AM 28.0 °F - 26.1 °F 92% 30.35 in 8.0 mi Calm Calm - N/A   Clear
5:56 AM 27.1 °F 20.7 °F 25.2 °F 92% 30.34 in 7.0 mi NE 5.8 mph - N/A   Clear
6:56 AM 29.1 °F 24.1 °F 26.1 °F 88% 30.37 in 5.0 mi NNE 4.6 mph - N/A   Clear
7:56 AM 34.9 °F 32.0 °F 29.1 °F 79% 30.39 in 7.0 mi ENE 3.5 mph - N/A   Clear
8:56 AM 39.9 °F - 30.0 °F 68% 30.40 in 9.0 mi Calm Calm - N/A   Clear
9:56 AM 45.0 °F - 30.0 °F 56% 30.41 in 10.0 mi Calm Calm - N/A   Clear
10:56 AM 54.0 °F - 24.1 °F 31% 30.38 in 10.0 mi NE 8.1 mph - N/A   Clear
11:56 AM 57.9 °F - 23.0 °F 26% 30.36 in 10.0 mi Variable 4.6 mph - N/A   Clear
12:56 PM 59.9 °F - 20.1 °F 22% 30.34 in 10.0 mi NNE 8.1 mph - N/A   Clear
1:56 PM 61.9 °F - 20.1 °F 20% 30.32 in 10.0 mi NNE 8.1 mph - N/A   Clear
2:56 PM 63.9 °F - 19.0 °F 18% 30.31 in 10.0 mi Variable 3.5 mph - N/A   Clear
3:56 PM 63.0 °F - 19.0 °F 18% 30.30 in 10.0 mi NE 6.9 mph - N/A   Clear
4:56 PM 61.0 °F - 19.0 °F 20% 30.31 in 10.0 mi Variable 3.5 mph - N/A   Clear
5:56 PM 54.0 °F - 23.0 °F 30% 30.30 in 10.0 mi NNE 4.6 mph - N/A   Clear
6:56 PM 46.9 °F - 30.0 °F 52% 30.30 in 10.0 mi NE 3.5 mph - N/A   Clear
7:56 PM 45.9 °F 44.6 °F 29.1 °F 52% 30.30 in 10.0 mi ENE 3.5 mph - N/A   Clear
8:56 PM 41.9 °F - 31.1 °F 66% 30.30 in 10.0 mi Calm Calm - N/A   Clear
9:56 PM 41.9 °F - 30.0 °F 63% 30.29 in 10.0 mi Calm Calm - N/A   Clear
10:56 PM 38.8 °F - 30.0 °F 71% 30.29 in 10.0 mi Calm Calm - N/A   Clear
11:56 PM 36.9 °F - 31.1 °F 80% 30.28 in 10.0 mi Calm Calm - N/A   Clear